This is the latest recevied weather packets stored in our database for station/object W0AKY-13. If no packets are shown the sender has not sent any weather packets the latest 10 day(s).
| Time | Temp. | Humidity | Pressure | Rain* | Wind** | Luminosity | Snow |
|---|---|---|---|---|---|---|---|
| 1777515835 | 9.44° C | 79% | 1020 hPa | 0 mm | - | 0 W/m² | - |
| 1777515532 | 9.44° C | 81% | 1019.7 hPa | 0 mm | - | 0 W/m² | - |
| 1777515229 | 10° C | 81% | 1019.8 hPa | 0 mm | - | 0 W/m² | - |
| 1777514924 | 10° C | 81% | 1019.7 hPa | 0 mm | - | 0 W/m² | - |
| 1777514621 | 10° C | 78% | 1019.5 hPa | 0 mm | - | 0 W/m² | - |
| 1777514319 | 10° C | 76% | 1019.5 hPa | 0 mm | - | 0 W/m² | - |
| 1777514015 | 10.56° C | 75% | 1019.6 hPa | 0 mm | - | 0 W/m² | - |
| 1777513713 | 10.56° C | 75% | 1019.6 hPa | 0 mm | - | 0 W/m² | - |
| 1777513410 | 10.56° C | 71% | 1019.5 hPa | 0 mm | - | 0 W/m² | - |
| 1777513106 | 11.11° C | 70% | 1019.5 hPa | 0 mm | - | 0 W/m² | - |
| 1777512801 | 11.11° C | 69% | 1019.4 hPa | 0 mm | - | 0 W/m² | - |
| 1777512499 | 11.67° C | 66% | 1019.8 hPa | 0 mm | - | 0 W/m² | - |
| 1777512195 | 12.22° C | 65% | 1019.6 hPa | 0 mm | - | 1 W/m² | - |
| 1777511893 | 12.22° C | 61% | 1019.6 hPa | 0 mm | - | 2 W/m² | - |
| 1777511590 | 12.78° C | 60% | 1019.4 hPa | 0 mm | - | 3 W/m² | - |
| 1777511288 | 12.78° C | 59% | 1019.7 hPa | 0 mm | - | 4 W/m² | - |
| 1777510983 | 13.33° C | 53% | 1019.5 hPa | 0 mm | - | 6 W/m² | - |
| 1777510680 | 13.33° C | 51% | 1019.5 hPa | 0 mm | - | 8 W/m² | - |
| 1777510376 | 13.89° C | 56% | 1019.6 hPa | 0 mm | - | 10 W/m² | - |
| 1777510072 | 14.44° C | 63% | 1019.8 hPa | 0 mm | - | 11 W/m² | - |
| 1777509769 | 14.44° C | 48% | 1019.4 hPa | 0 mm | - | 13 W/m² | - |
| 1777509465 | 15° C | 47% | 1019.7 hPa | 0 mm | - | 15 W/m² | - |
| 1777509163 | 15° C | 46% | 1019.6 hPa | 0 mm | - | 17 W/m² | - |
| 1777508860 | 15° C | 48% | 1019.7 hPa | 0 mm | - | 18 W/m² | - |
| 1777508557 | 15° C | 45% | 1019.4 hPa | 0 mm | - | 20 W/m² | - |
* Rain latest hour (hover to see other rain measurements)
** Current wind speed in m/s (hover to see current wind gust speed)